Simultaneous Nadir Overpasses (SNOs) Predictions

Prediction of SNOs between NOAA-20 and AQUA Satellite Orbit:

Table of predicted SNOs for the next 14.0 days since TLE Epoch: 8/26/2022
Index Date (NOAA-20) Time (NOAA-20) Lat,Lon (NOAA-20) SZA (NOAA-20 ) Date (AQUA) Time (AQUA) Lat,Lon (AQUA) SZA (AQUA ) Distance(km) Time Diff (sec)
1 08/27/2022 03:35:32 78.26, 14.60 84.48 08/27/2022 03:36:46 78.23, 14.61 84.44 4.15 74
2 08/27/2022 04:26:01 -78.89,-174.31 96.43 08/27/2022 04:25:57 -78.90,-174.18 96.45 2.80 4
3 08/29/2022 19:52:11 78.94, 134.47 84.38 08/29/2022 19:52:18 78.94, 134.49 84.37 0.31 7
4 08/29/2022 20:42:44 -79.37, -55.06 96.30 08/29/2022 20:41:34 -79.37, -55.16 96.23 1.98 70
5 09/01/2022 11:18:20 -79.02, 83.46 94.85 09/01/2022 11:18:39 -79.01, 83.33 94.84 2.84 19
6 09/01/2022 12:08:57 79.28,-107.32 84.75 09/01/2022 12:07:57 79.28,-107.29 84.79 0.61 60
7 09/04/2022 02:44:33 78.95, 31.46 86.17 09/04/2022 02:45:02 78.95, 31.39 86.16 1.45 29
8 09/04/2022 03:35:12 -79.18,-159.61 94.18 09/04/2022 03:34:23 -79.19,-159.48 94.17 2.77 49
9 09/06/2022 18:10:48 -78.85, -20.78 92.75 09/06/2022 18:11:28 -78.85, -20.79 92.78 0.34 40
10 09/06/2022 19:01:24 79.15, 148.61 86.80 09/06/2022 19:00:45 79.16, 148.75 86.80 3.13 39
11 09/09/2022 09:36:59 78.85, -72.34 88.19 09/09/2022 09:37:49 78.84, -72.38 88.16 0.92 50



Historial Predications of SNOs between NOAA-20 and AQUA
